Regional Weather Roundup
Issued by NWS Cleveland, OH

Home | Current Version | Previous Version | Text Only | Print | Product List | Glossary Off
Versions: 1 2 3 4 5 6 7 8 9 10 11 12 13 14 15 16 17 18 19 20 21 22 23 24 25 26 27 28 29 30 31 32 33 34 35 36 37 38 39 40 41 42 43 44 45 46 47 48 49 50

000
ASUS41 KCLE 231502
RWRCLE
OHIO REGIONAL WEATHER ROUNDUP
NATIONAL WEATHER SERVICE CLEVELAND, OH
1100 AM EDT TUE SEP 23 2014

NOTE: "FAIR" INDICATES FEW OR NO CLOUDS BELOW 12,000 FEET WITH NO
SIGNIFICANT WEATHER AND/OR OBSTRUCTIONS TO VISIBILITY.

OHZ001>008-015>018-024>027-034-035-043-044-231600-
   NORTHWEST OHIO

CITY           SKY/WX    TMP DP  RH WIND       PRES   REMARKS
DEFIANCE       SUNNY    N/A N/A N/A CALM      30.37R
FINDLAY        SUNNY     61  45  55 CALM      30.36R
TOLEDO EXPRESS SUNNY     60  46  59 CALM      30.37R
TOLEDO EXEC    SUNNY     62  45  53 SW6       30.37S
LIMA           SUNNY     61  46  57 CALM      30.36S
$$

OHZ009>014-019>023-028>033-038-089-231600-
   NORTHEAST OHIO

CITY           SKY/WX    TMP DP  RH WIND       PRES   REMARKS
CLE-HOPKINS    MOSUNNY   59  46  62 SW6       30.39R
CLE-LAKEFRONT  SUNNY     60  46  59 W3        30.36R
CUY CO. ARPT   SUNNY     63  50  63 CALM      30.37S
LORAIN-ELYRIA  SUNNY     62  46  55 W3        30.38R
ASHTABULA      SUNNY     59  50  72 SW6       30.37S
AKRON-CANTON   SUNNY     59  44  57 VRB3      30.37S
WOOSTER        SUNNY     58  44  60 S3        30.38S
MANSFIELD      SUNNY     59  44  57 CALM      30.37S
YOUNGSTOWN     SUNNY     57  47  69 CALM      30.38R
$$

OHZ042-051>053-060>062-070>072-077>081-231600-
  SOUTHWEST OHIO

CITY           SKY/WX    TMP DP  RH WIND       PRES   REMARKS
CINC-COVINGTON SUNNY     62  44  51 E6        30.36R
CINC-LUNKEN    SUNNY     60  48  64 CALM      30.37S
HAMILTON       SUNNY     61  47  59 CALM      30.38R
DAYTON         SUNNY     62  43  49 SW5       30.38R
WRIGHT-PAT AFB SUNNY     59  43  55 W2        30.37R
DAYTON GENERAL SUNNY     59  44  57 CALM      30.36S
WILMINGTON     SUNNY     61  44  53 VRB3      30.36R
$$

OHZ036-037-039>041-045>050-054>059-063>069-073>076-082>088-231600-
  CENTRAL AND SOUTHEAST OHIO

CITY           SKY/WX    TMP DP  RH WIND       PRES   REMARKS
COLUMBUS       SUNNY     61  43  51 CALM      30.37S
OSU AIRPORT    SUNNY     59  43  55 CALM      30.37S
BOLTON FIELD   SUNNY     59  46  63 CALM      30.38S
RICKENBACK AFB SUNNY     57  45  63 CALM      30.37S
NEWARK         SUNNY     57  46  66 CALM      30.37F
MARION         SUNNY     59  45  59 S5        30.37S
LANCASTER      SUNNY     60  44  55 CALM      30.38R
ZANESVILLE     SUNNY     57  44  62 CALM      30.37F
NEW PHILLY     SUNNY     57  46  66 CALM      30.38F
$$


USA.gov is the U.S. government's official web portal to all federal, state and local government web resources and services.